EHI
0 0 0 0 0 0 0 0 1 1 2 4 4 4 4 4 4 4 6 11 16 20 25 33 40 40 30 22 20 21 18 14 13 15 17 19 20 19 15 13 12 11 9 8 7 6 6 6 7
0 0 0 0 0 0 0 0 1 1 2 5 6 7 6 4 5 6 8 14 18 21 24 31 38 38 30 23 20 20 16 12 10 11 14 16 18 18 15 13 11 10 9 9 8 6 5 6 8
0 0 0 0 0 0 0 0 1 2 4 6 9 8 5 3 5 9 14 18 19 19 20 26 33 33 28 23 20 18 14 10 8 8 9 12 15 16 15 12 10 8 7 7 7 6 5 7 8
0 0 0 0 0 0 0 0 1 3 5 8 9 9 5 4 8 16 20 22 20 16 16 22 29 30 26 23 20 17 13 10 8 7 7 8 11 13 13 10 7 5 5 5 6 6 6 6 5
0 0 0 0 0 0 0 0 1 3 5 7 10 10 7 7 15 23 24 23 20 17 15 20 28 30 27 25 21 16 12 9 8 7 6 6 8 9 9 7 5 4 4 4 5 6 5 4 2
0 0 0 0 0 0 0 1 2 3 5 6 10 11 7 9 20 27 26 23 20 17 15 18 24 27 26 25 21 16 11 8 7 6 4 4 6 7 8 6 4 4 4 4 4 4 3 1 0
0 0 0 0 0 0 0 1 3 5 6 7 9 10 6 9 20 27 26 23 19 17 15 15 17 20 22 21 18 14 10 6 5 3 2 2 3 6 6 5 4 3 3 3 3 2 1 0 0
0 0 0 0 0 0 1 2 5 8 8 9 9 7 6 9 19 27 27 22 18 15 14 13 15 17 18 15 13 11 9 6 4 3 2 2 2 3 3 3 3 2 1 1 1 1 0 0 0
0 0 0 0 0 0 1 3 7 10 12 13 12 9 10 14 20 27 28 24 19 15 13 13 15 17 16 13 11 10 8 7 5 4 4 3 1 1 1 1 1 1 0 0 0 0 0 0 0
0 0 0 0 0 0 2 4 7 11 14 15 15 16 18 20 22 25 28 27 23 17 13 12 14 14 13 12 10 8 7 6 5 5 4 3 1 0 0 0 0 0 0 0 0 0 1 1 1
0 0 0 0 0 1 2 4 6 10 12 14 17 21 23 23 22 22 23 25 24 19 14 11 11 10 9 9 8 7 6 6 6 5 4 3 2 1 0 0 0 0 0 0 1 1 2 2 1
0 0 0 0 0 1 3 4 5 8 10 12 16 22 23 21 19 18 20 23 23 19 14 11 9 7 5 5 6 6 6 6 6 4 3 3 3 1 1 0 0 0 1 1 2 2 1 1 0
0 0 0 0 1 2 3 4 5 6 9 11 15 19 21 20 17 17 20 24 24 20 15 11 9 6 3 2 4 5 6 6 6 5 4 3 3 3 2 1 1 1 2 3 2 1 0 0 0
0 0 0 0 1 2 3 3 4 6 8 11 13 15 19 20 18 20 24 27 26 21 16 13 11 7 4 3 3 4 4 5 5 5 4 3 3 3 3 3 2 3 3 3 3 1 1 0 0
0 0 1 1 1 1 1 2 3 5 8 11 12 13 17 20 20 21 25 28 27 23 19 16 14 11 7 5 4 4 4 4 4 4 3 3 3 3 3 3 3 3 3 3 3 3 2 1 1
0 0 1 2 2 1 0 0 2 5 8 10 11 13 17 19 20 22 25 29 27 24 22 20 17 13 9 7 6 6 7 7 6 4 3 3 3 3 3 3 3 3 3 3 3 3 3 2 2
0 0 0 2 3 2 1 0 2 4 6 8 10 13 16 18 20 23 27 29 27 24 23 21 16 12 10 9 9 9 9 9 7 6 4 4 3 2 2 3 3 3 3 3 3 3 3 3 2
0 0 0 1 2 2 1 1 2 3 4 5 7 11 15 17 19 24 29 32 29 25 24 23 17 11 10 11 12 11 10 8 6 6 6 6 5 3 2 3 3 3 3 3 3 3 3 3 2
0 0 0 0 1 2 1 1 1 2 3 4 6 10 15 16 18 25 31 33 31 28 27 26 21 14 12 13 13 13 10 7 6 6 7 7 6 5 3 2 2 2 2 2 2 2 2 2 2
0 0 0 0 0 1 2 1 1 1 3 4 7 12 16 17 18 24 30 32 31 30 29 27 22 16 13 13 14 13 10 8 6 6 7 7 7 6 4 2 2 2 1 1 1 1 1 1 2
0 0 0 0 0 1 3 1 0 2 4 6 10 15 19 18 17 23 29 30 29 29 28 26 21 16 14 14 13 11 9 8 6 5 5 5 6 6 5 4 3 2 2 1 0 0 0 0 1
0 0 0 0 0 1 1 1 0 2 5 8 10 15 18 17 18 24 28 29 29 29 27 24 20 16 15 15 13 11 9 8 6 4 3 3 4 5 6 5 4 3 2 1 0 0 0 0 0
0 0 0 0 0 0 0 0 0 1 4 6 10 14 16 16 18 24 28 29 30 30 28 24 19 16 15 15 14 11 10 9 6 4 3 3 3 4 5 4 3 3 2 1 0 0 0 0 0
0 0 0 0 0 0 0 0 0 1 3 5 9 13 14 15 19 24 28 29 31 31 29 25 20 17 16 15 14 12 10 8 5 4 3 3 3 3 4 4 4 4 3 1 0 0 0 0 0
0 0 0 0 0 0 0 0 0 2 4 6 9 12 13 14 19 24 27 28 30 31 30 26 23 19 17 15 13 11 10 8 6 4 3 3 3 3 3 4 6 6 4 2 1 0 0 0 0
0 0 0 0 0 0 0 0 0 1 3 5 8 11 11 12 16 21 25 26 27 29 29 28 26 23 19 15 12 10 10 9 8 5 3 3 2 2 3 4 5 5 4 3 1 0 0 0 0
0 0 0 0 0 0 0 0 0 0 1 3 6 9 9 8 10 16 21 23 23 24 25 26 25 23 20 16 11 10 10 9 8 6 4 2 1 1 2 3 3 4 3 2 1 0 0 0 0
0 0 0 0 0 0 0 0 0 0 1 2 4 7 8 7 7 11 17 20 20 21 22 22 21 20 18 14 11 10 9 9 7 6 5 2 1 1 1 1 1 2 2 2 1 0 0 0 0
0 0 0 0 0 0 0 0 0 0 0 1 3 6 7 7 6 8 13 18 19 21 22 21 19 17 15 12 10 9 9 7 7 6 5 3 1 1 1 0 0 1 1 1 0 0 0 0 0
0 0 0 0 0 0 0 0 0 0 0 0 2 5 7 6 6 8 12 17 20 22 22 22 19 16 13 11 10 9 8 7 6 6 6 4 2 2 2 1 0 0 0 0 0 0 0 0 0
Wind_Speed
3 2 1 2 5 5 2 3 2 2 3 5 8 8 8 5 5 5 4 12 13 12 9 11 13 13 13 13 12 12 12 12 11 11 11 11 11 10 10 10 9 9 9 10 10 10 10 10 10
1 2 2 4 5 3 4 3 1 3 6 7 9 9 8 6 7 10 7 12 14 12 9 11 14 14 13 13 12 12 12 11 11 11 11 11 10 9 9 9 9 9 9 9 9 9 9 9 10
2 2 3 4 3 3 3 2 1 3 5 4 5 6 5 6 8 7 9 15 13 10 8 11 15 14 14 13 12 11 11 11 11 10 10 10 10 9 9 9 9 9 8 8 9 9 9 9 8
1 3 4 4 2 5 5 4 1 2 3 4 8 6 4 4 6 10 16 15 13 10 8 11 15 14 14 13 12 11 11 10 10 10 10 9 9 9 9 9 9 8 8 8 7 8 8 8 7
3 4 4 1 4 4 4 4 2 1 1 4 8 7 4 4 13 17 16 15 13 10 7 9 14 14 14 13 12 11 11 10 9 9 9 8 8 7 8 8 8 8 7 7 6 6 7 7 6
3 4 3 2 4 3 3 2 2 3 4 5 8 7 3 7 14 15 14 13 13 12 8 8 13 14 13 13 12 11 10 10 9 8 8 7 7 7 7 7 7 7 7 7 6 5 6 6 5
3 3 2 3 3 4 3 1 3 5 5 4 7 7 5 7 11 13 13 12 11 11 9 7 7 9 12 12 12 11 10 10 9 8 7 7 6 6 7 7 7 6 6 6 5 5 5 5 4
5 3 1 2 2 4 3 1 2 4 4 5 5 8 8 9 10 12 11 10 10 9 8 7 6 5 6 7 10 11 10 10 9 8 7 7 6 6 6 6 6 6 6 5 4 4 3 3 3
3 3 3 4 3 3 3 3 2 2 6 4 3 6 10 15 14 12 11 8 8 8 6 7 7 5 5 5 7 8 9 9 8 6 7 6 3 2 3 5 6 6 6 5 4 3 3 3 2
4 4 7 5 4 3 3 0 0 4 6 5 5 7 12 14 13 13 12 11 9 9 7 6 7 6 5 5 4 3 3 4 3 3 3 2 2 2 3 4 5 5 6 5 4 4 2 2 1
4 6 5 5 4 3 2 2 0 5 3 5 11 13 13 13 12 12 12 11 10 9 8 6 6 6 5 4 4 2 2 2 2 3 3 2 2 1 2 1 1 2 2 2 1 1 1 1 1
3 5 5 5 4 3 3 1 1 2 6 8 12 14 13 12 12 11 11 10 9 9 8 6 6 5 5 4 4 3 2 2 2 3 3 3 2 2 1 1 1 1 1 1 1 1 1 1 1
4 6 6 6 4 3 2 2 3 3 6 10 11 12 11 11 9 9 9 10 9 8 7 7 6 6 4 4 3 4 3 3 2 2 3 4 3 2 2 1 1 1 1 1 1 1 1 1 1
4 4 5 5 4 2 2 3 2 4 8 11 13 11 11 11 10 9 9 9 10 9 8 7 7 6 5 4 4 3 3 3 2 2 3 4 3 3 2 2 1 1 1 1 2 1 1 1 1
3 4 5 5 3 3 2 2 4 6 9 11 12 12 12 10 10 10 11 11 10 10 8 8 8 6 6 5 4 3 3 3 3 3 3 3 3 3 3 2 2 1 1 1 1 1 1 1 1
4 2 3 6 2 3 4 6 7 6 10 10 11 11 11 9 9 9 10 9 9 8 7 7 7 6 5 4 4 3 3 3 3 2 2 3 3 3 3 2 2 1 1 1 2 1 1 1 0
3 2 4 7 4 2 3 5 6 6 9 9 9 9 10 8 7 7 9 10 9 9 8 7 6 6 5 4 3 3 3 3 2 2 1 2 2 2 3 2 2 2 2 1 1 1 1 1 0
4 3 5 6 5 2 3 5 4 5 7 7 7 8 9 9 8 8 8 9 9 8 8 8 7 6 5 4 3 2 2 2 2 2 2 2 2 2 3 2 2 2 2 1 1 1 1 1 1
5 5 8 10 6 3 4 4 4 5 5 5 5 6 8 8 6 7 7 8 8 7 8 8 7 6 5 3 3 2 2 2 1 1 2 2 2 2 2 2 2 2 2 2 2 1 1 0 1
5 7 9 8 4 2 2 3 3 4 6 7 8 8 8 7 6 6 6 6 7 8 8 7 7 6 5 4 3 2 2 1 1 1 1 1 1 2 2 2 2 2 2 2 2 2 1 0 1
8 7 7 6 4 1 1 4 3 2 2 4 6 8 9 11 11 9 8 7 7 7 8 8 7 7 6 5 3 3 2 2 1 0 0 0 1 1 2 2 2 2 2 2 2 2 3 2 0
8 7 6 4 1 3 0 2 5 2 3 6 7 7 8 9 9 10 10 9 9 8 7 7 6 6 5 6 5 5 4 2 2 1 1 1 1 1 1 2 2 2 2 2 2 2 2 3 1
7 6 3 2 1 1 2 1 6 1 4 6 7 7 8 10 11 11 11 11 10 9 8 7 6 5 5 5 5 5 3 2 1 1 1 0 1 0 1 1 2 2 2 2 2 2 2 2 2
4 1 3 3 3 1 4 3 5 4 7 6 6 6 7 8 9 9 8 8 8 7 7 7 7 5 4 5 5 5 4 3 3 2 1 1 1 1 0 1 1 2 2 2 2 2 2 2 2
1 4 4 5 3 5 3 2 6 6 5 6 7 7 7 8 9 9 8 7 7 8 7 7 7 5 5 5 5 5 5 5 5 3 3 2 1 1 2 1 1 1 2 2 2 2 1 1 1
3 7 6 4 4 4 2 3 5 3 1 2 4 6 6 7 7 8 10 9 8 8 8 7 7 5 5 5 4 4 4 3 3 3 3 3 2 2 2 2 2 2 2 2 2 2 1 1 1
2 3 7 6 2 1 3 3 4 4 3 3 4 5 5 5 5 6 7 8 9 8 7 7 7 5 4 5 4 3 3 3 3 3 2 2 2 2 2 2 2 1 2 2 2 2 1 1 1
5 5 4 4 3 3 3 3 4 2 2 2 5 6 6 5 5 5 7 8 7 8 7 6 6 5 4 3 3 3 3 3 3 3 2 2 1 2 2 2 2 2 2 2 2 2 1 1 1
0 1 3 3 4 4 3 6 5 7 6 4 5 5 6 7 7 5 5 7 7 7 7 6 5 5 3 3 2 3 3 2 3 2 3 2 1 2 2 3 2 2 1 1 2 2 2 2 1
3 3 5 4 3 3 3 7 5 5 4 4 4 4 5 6 6 6 6 7 7 7 7 7 6 5 5 4 3 3 2 2 2 2 2 2 2 2 2 3 2 2 1 1 2 2 2 2 2
Wind_Direction
229 199 142 71 53 46 311 258 158 71 49 66 84 93 100 91 120 138 142 139 136 139 142 136 133 129 126 123 120 117 114 111 106 102 100 99 98 98 102 103 105 107 107 109 110 111 109 108 111
230 178 68 59 75 45 294 264 100 125 134 105 85 85 79 74 96 113 125 142 140 140 141 139 136 133 130 128 124 121 118 116 112 108 106 105 103 101 102 107 110 110 110 112 113 114 112 109 109
253 183 88 71 97 172 243 278 122 109 130 113 98 77 82 113 116 128 144 143 140 139 140 142 139 136 135 132 128 125 123 121 118 114 112 111 109 107 106 109 114 115 116 116 117 118 116 113 111
68 52 48 67 253 228 205 249 237 93 85 89 104 81 68 106 122 134 140 141 138 138 141 144 142 141 139 136 134 132 129 126 123 119 117 116 114 112 113 114 116 119 121 122 123 122 121 120 119
71 74 53 4 261 256 241 255 230 141 98 108 102 97 68 60 115 132 139 140 137 139 143 145 145 145 143 142 140 137 135 131 128 125 122 121 120 119 120 121 122 121 121 128 127 126 127 125 126
50 70 82 263 267 274 267 226 139 106 116 113 104 104 95 126 128 140 140 140 139 141 143 145 148 149 148 147 145 143 141 140 136 132 128 126 128 131 130 130 132 130 128 131 137 133 133 134 138
119 105 195 234 271 280 263 208 157 147 138 140 127 107 126 149 145 141 138 137 139 142 142 145 151 153 154 152 152 149 149 148 145 142 141 141 139 141 142 140 137 138 140 146 150 147 147 147 146
149 109 273 252 240 270 295 10 129 135 121 124 118 131 157 169 144 134 132 133 138 143 146 151 149 149 154 157 160 159 158 157 155 153 152 151 150 148 152 152 152 154 158 161 159 158 158 157 160
122 93 233 230 212 257 303 25 34 83 107 109 105 137 151 146 136 129 128 130 141 146 150 152 153 153 153 157 163 161 165 165 161 161 158 149 146 151 157 167 170 170 170 171 172 177 177 182 192
122 169 226 219 203 229 269 19 259 80 83 85 84 104 131 139 140 142 147 150 155 159 162 159 158 158 156 157 145 150 161 163 159 161 161 147 145 156 155 173 177 175 175 179 183 185 189 171 179
170 200 236 249 237 220 241 286 284 123 114 160 150 148 147 146 146 151 157 162 164 162 161 163 161 159 158 148 147 151 149 156 162 165 161 147 137 131 124 126 167 169 171 170 183 178 170 168 175
229 252 243 247 244 228 224 211 66 140 177 170 157 152 151 153 158 164 164 162 155 153 157 156 154 151 152 146 149 151 156 165 172 169 153 137 133 136 134 136 156 151 153 158 147 161 189 179 185
255 265 263 255 255 231 196 184 166 181 161 147 146 145 156 159 161 162 157 152 150 151 155 153 150 150 148 145 152 151 157 164 169 159 154 145 144 151 145 148 152 160 161 168 164 169 194 193 197
250 271 272 265 261 254 180 237 159 201 156 150 149 158 167 163 161 155 152 152 156 158 159 154 149 151 149 151 150 156 156 156 157 162 158 153 148 154 155 160 162 166 176 173 162 171 180 186 176
279 299 302 275 250 222 118 293 229 194 156 153 156 166 167 164 161 164 163 158 161 161 157 155 154 149 145 145 149 147 154 152 157 164 154 151 148 155 155 159 165 183 174 151 133 129 112 131 153
352 345 289 281 258 233 142 235 243 185 159 164 168 170 165 164 163 163 157 153 155 151 151 154 151 148 150 145 143 143 145 148 154 148 147 150 148 149 152 157 170 170 139 136 138 121 99 76 134
359 288 267 286 267 237 173 219 237 181 166 168 169 168 163 155 154 157 156 155 155 153 148 147 143 149 150 140 134 136 135 143 139 127 146 160 164 164 158 168 177 153 138 147 167 135 139 150 194
245 259 270 262 269 242 238 229 219 191 171 171 174 168 160 158 167 160 154 155 154 150 144 140 137 141 139 127 112 109 112 122 116 129 170 177 178 166 151 159 170 151 139 148 153 144 136 156 178
230 261 273 270 267 224 234 239 227 189 169 167 167 160 161 164 161 154 150 148 143 143 140 140 137 142 138 136 135 140 154 148 138 162 182 175 165 156 150 154 163 157 159 173 166 149 133 130 104
243 264 275 289 280 207 197 255 242 192 190 181 170 166 166 157 142 147 145 146 152 154 149 143 144 147 148 150 147 146 142 152 165 168 155 154 152 161 156 155 170 164 157 152 151 148 142 158 114
251 241 251 262 305 341 86 320 296 246 186 182 173 169 169 167 162 161 158 157 155 157 159 155 155 151 148 140 125 118 89 69 57 25 345 272 177 174 156 163 165 166 160 172 171 157 154 167 176
249 242 238 247 281 284 153 259 278 239 210 193 190 177 178 177 169 165 163 162 162 163 157 149 152 148 148 145 143 145 149 164 198 191 204 258 230 200 183 165 161 164 163 163 179 165 161 155 174
233 233 224 239 201 328 340 166 272 230 225 216 198 184 181 181 174 169 168 168 165 159 155 147 142 145 149 150 152 153 156 173 162 139 137 230 264 235 166 158 145 144 154 161 166 159 158 166 177
228 40 17 31 65 302 251 188 266 230 218 205 188 184 179 175 170 165 163 156 153 151 149 143 141 146 150 149 150 154 157 150 142 146 165 214 256 267 235 159 143 147 152 154 154 151 152 166 170
73 85 26 356 357 253 243 183 249 248 215 193 175 174 171 161 163 157 154 151 150 149 149 150 153 154 153 150 153 160 161 160 166 174 182 194 209 231 230 190 159 160 161 153 146 136 135 144 147
204 148 161 202 229 277 316 233 261 279 198 128 143 152 157 152 159 162 160 154 155 158 155 153 156 158 162 160 166 163 160 166 172 176 180 191 204 209 201 177 166 166 161 153 138 124 137 132 142
181 204 178 153 201 240 267 273 310 6 42 93 131 139 155 150 149 156 158 156 156 157 159 159 157 157 157 165 163 158 157 158 163 173 171 181 192 180 165 164 166 155 145 144 135 127 141 137 146
177 172 102 126 171 240 263 246 241 265 264 183 160 169 169 153 146 154 165 161 161 162 159 150 149 155 151 153 169 159 159 159 156 151 156 160 153 143 146 147 150 154 152 146 137 141 150 130 140
207 97 118 129 160 171 239 261 223 205 210 202 185 172 170 163 161 157 162 159 156 151 151 148 144 135 135 160 163 142 150 151 146 147 163 163 154 145 153 162 154 159 159 150 142 158 151 144 142
170 170 142 152 231 179 193 259 253 204 202 193 170 158 163 155 154 146 149 153 147 148 152 153 150 153 165 167 149 147 145 146 147 149 156 152 151 155 153 147 140 145 148 154 156 174 165 158 165